Weather Roundup
Issued by NWS

Home | Current Version | Previous Version | Text Only | Print | Product List | Glossary On
Versions: 1 2 3 4 5 6 7 8 9 10 11 12 13 14 15 16 17 18 19 20 21 22 23 24 25 26 27 28 29 30 31 32 33 34 35 36 37 38 39 40 41 42 43 44 45 46 47 48 49 50
787
NZUS93 KARX 300110
HRRWXR

CURRENT HOURLY OBSERVATIONS ACROSS
MUCH OF THE UPPER MISSISSIPPI VALLEY
NATIONAL WEATHER SERVICE LA CROSSE WI
800 PM CDT WED MAR 29 2017


...SOUTHEAST MINNESOTA...


CITY           SKY/WX    TMP DP  RH WIND       PRES   REMARKS
ROCHESTER      LGT RAIN  39  37  92 E16G25    30.11F WCI  30
ROCHESTER/MAYO CLOUDY    40  38  93 E8G18     30.12F WCI  35
WINONA         RAIN      41  37  87 E8        30.16F
AUSTIN         LGT RAIN  39  36  87 E17G23    30.08F WCI  30
ALBERT LEA     LGT RAIN  39  37  93 E16       30.07F WCI  30
DODGE CENTER   LGT RAIN  39  37  93 E20G25    30.10F WCI  30
PRESTON        LGT RAIN  39  36  89 E17G24    30.11F WCI  30
OWATONNA       LGT RAIN  39  37  93 E15       30.11F WCI  31
FARIBAULT      LGT RAIN  39  39 100 E12G17    30.13F WCI  32
$$

...ELSEWHERE IN MINNESOTA...


CITY           SKY/WX    TMP DP  RH WIND       PRES   REMARKS
MINNEAPOLIS    LGT RAIN  45  39  79 SE8       30.16S
INTNL FALLS    PTCLDY    44  30  57 SE8       30.10F
DULUTH         CLOUDY    32  27  81 E10       30.19F WCI  24
RED WING       LGT RAIN  43  39  87 SE8G16    30.16S
REDWOOD FALLS  LGT RAIN  42  38  85 E10G20    30.10F
MANKATO        LGT RAIN  40  37  89 E20G26    30.10F WCI  30
WORTHINGTON    LGT RAIN  38  36  92 E21       30.03F WCI  28
FAIRMONT       LGT RAIN  39  37  92 E20       30.06F WCI  29
$$

...SOUTHWEST WISCONSIN...


CITY           SKY/WX    TMP DP  RH WIND       PRES   REMARKS
LA CROSSE      LGT RAIN  44  40  85 E12       30.15F FOG
PRAIRIE DU CHI LGT RAIN  39  38  97 NE12G21   30.11R WCI  32
BOSCOBEL       LGT RAIN  42  38  85 E7        30.15R
LONE ROCK      LGT RAIN  43  36  76 E20       30.12F
PLATTEVILLE    CLOUDY    39  38  96 NE23G32   30.05F WCI  29
FORT MC COY    RAIN      41  38  91 NE9       30.18S
CAMP DOUGLAS   DRIZZLE   43  34  70 NE9       30.17S
MAUSTON-NEW LI RAIN      43  34  71 E5        30.17S
VIROQUA        CLOUDY    41  39  93 E16G22    30.12F
WIS DELLS      CLOUDY    41  31  67 NE10      30.14F
$$

...ELSEWHERE IN WISCONSIN...


CITY           SKY/WX    TMP DP  RH WIND       PRES   REMARKS
MILWAUKEE      LGT RAIN  39  34  82 NE15      30.18R WCI  31
MADISON        RAIN      42  36  79 E17       30.14F
GREEN BAY      CLOUDY    38  31  76 NE9       30.23F WCI  31
EAU CLAIRE     LGT RAIN  43  38  82 SE7       30.18S
BLACK RVR FLS  RAIN      42  42  99 E9        30.18S
MEDFORD        CLOUDY    41  29  63 SE6       30.19S
WAUSAU         CLOUDY    41  28  60 SE9       30.20R
WIS RAPIDS     LGT RAIN  39  37  92 E7        30.22R WCI  34
MARSHFIELD     LGT RAIN  39  34  82 SE5       30.19R
RICE LAKE      CLOUDY    45  34  64 CALM      30.19F
$$

...NORTHEAST IOWA...


CITY           SKY/WX    TMP DP  RH WIND       PRES   REMARKS
WATERLOO       LGT RAIN  41  38  89 NE21G30   30.01F FOG
DUBUQUE        LGT RAIN  39  37  92 E17G28    30.05R FOG     WCI  30
DECORAH        CLOUDY    41  39  93 E14G25    30.08F FOG
MASON CITY     LGT RAIN  38  36  92 E21G32    30.05F FOG     WCI  28
CHARLES CITY   LGT RAIN  39  39 100 NE20G30   30.05F WCI  30
OELWEIN        CLOUDY    39  39 100 E22G32    30.02F FOG     WCI  29
$$

...ELSEWHERE IN IOWA...


CITY           SKY/WX    TMP DP  RH WIND       PRES   REMARKS
DES MOINES     LGT RAIN  44  42  93 E18G31    29.86F FOG
IOWA CITY      LGT RAIN  45  40  82 E17G30    29.96F
FORT DODGE     CLOUDY    39  36  87 NE24      29.97F WCI  28
MARSHALLTOWN   CLOUDY    41  40  96 E30G38    29.93F FOG
CEDAR RAPIDS   LGT RAIN  42  42 100 E25G35    29.95S FOG
$$

...NORTHERN ILLINOIS...


CITY           SKY/WX    TMP DP  RH WIND       PRES   REMARKS
CHICAGO-OHARE  LGT RAIN  44  37  76 NE15      30.07F
CHICAGO-MIDWAY LGT RAIN  45  40  82 NE13G24   30.07F
MOLINE         LGT RAIN  45  39  79 E20       29.98S
ROCKFORD       LGT RAIN  43  37  79 NE16      30.10F
PEORIA         LGT RAIN  50  46  86 E13       29.93S
$$

NOTE: "FAIR" INDICATES FEW OR NO CLOUDS BELOW 12,000 FEET WITH NO
SIGNIFICANT WEATHER AND/OR OBSTRUCTIONS TO VISIBILITY. WIND
SPEEDS ARE IN MILES-PER-HOUR.




USA.gov is the U.S. government's official web portal to all federal, state and local government web resources and services.